Find OneWeb SL0394

NORAD ID: 50474 Int'l Des: 2021-132 Owner: ONEWEBN Country: UK Constellation: oneweb operational
LEOCIRCULARPOLARONEWEB_TYPE

当前视图

正在加载3D地球...

About OneWeb SL0394

OneWeb SL0394 (NORAD 50474) is a oneweb constellation satellite launched Dec 27, 2021 by ONEWEBN of UK. It operates in LEO, CIRCULAR, POLAR, ONEWEB_TYPE orbit with a mass of 148.00 kg.

关于 OneWeb SL0394

正在加载描述...

即将过境

Passes for default location (London). Set your location on the main map for personalized predictions.

高度历史

Loading altitude history...

两行轨道根数

1 50474U 21132F 26171.43668346 .00000036 00000-0 58519-4 0 9997
2 50474 87.9174 334.7953 0001789 88.9922 271.1415 13.18687610222025
Epoch: Jun 20, 2026 • Age: 26 hours

当前状态

高度 1191.9 km
速度 7.26 km/s
星下点 20.18°N, 52.35°E
发射日期 Dec 27, 2021
运行时间 4.4 years
类型 internet

技术详情

分类 Payload
质量 148.00 kg
干质量 140.00 kg
总质量 148.00 kg
长度 1.30 m
直径 1.00 m
跨度 5.00 m
形状 Trapezoid+2 pan
制造商 ONEWUS
平台类型 ARROW
阶段状态 In Orbit
所有者/国家 ONEWEBN/UK

Most Searched